[[{"header":{"parameterUnit":"m.s-1","parameterCategory":1,"la1":30.2992,"la2":30.254,"lo1":-89.0895,"lo2":-89.0443,"dy":0.0025,"dx":0.0025,"nx":19,"ny":19,"refTime":"2026-05-06T09:00:00:Z","depth":0,"parameterNumber":2,"parameterNumberName":"U-component_of_WINDS"},"data":[0,0,0,3.6729,3.6731,3.6813,3.6813,3.6923,3.6924,0,0,0,0,0,0,0,0,0,0,0,3.671,3.6711,3.6729,3.6731,3.6813,3.6813,3.6923,3.6924,0,0,0,0,0,0,0,0,0,0,0,3.6709,3.6711,3.6712,3.6732,3.6813,3.6813,3.6923,3.6859,0,0,0,0,0,0,0,0,0,0,3.6778,3.6766,3.671,3.6712,3.6732,3.6813,3.6813,3.6856,3.6863,3.6889,0,3.6915,0,3.6921,3.6932,3.6932,0,0,0,3.6727,3.676,3.6777,3.6712,3.6733,3.6813,3.6775,3.6859,3.6868,3.6898,3.6916,3.692,3.6923,3.6933,3.6933,3.7099,3.71,0,0,3.6723,3.6727,3.6772,3.6783,3.6773,3.6772,3.6778,3.6864,3.6884,3.6917,3.6923,3.6925,3.6934,3.6934,3.7098,3.71,0,0,0,3.6712,3.6724,3.6739,3.6779,3.6793,3.6775,3.6781,3.688,3.6884,3.6924,3.6926,3.6934,3.6936,3.7097,3.7099,3.7149,0,0,0,3.671,3.6718,3.6738,3.6741,3.6792,3.6838,3.6795,3.6878,3.6888,3.6926,3.6934,3.6937,3.7096,3.7098,3.7146,3.7172,0,0,0,3.6703,3.6717,3.6731,3.6741,3.6777,3.6836,3.6846,3.688,3.689,3.6933,3.6937,3.7096,3.7098,3.7143,3.7167,3.7215,0,0,0,3.6697,3.6776,3.6732,3.6821,3.6776,3.6868,3.6845,3.6914,3.6956,3.6935,3.7096,3.7099,3.7142,3.7164,3.7212,3.7256,3.7275,0,0,3.6799,3.6788,3.684,3.6803,3.6904,3.6855,3.6963,3.6998,3.6998,3.7065,3.7069,3.7147,3.7167,3.7215,3.7385,3.74,0,0,0,3.6874,3.6911,3.6937,3.6978,3.7007,3.7033,3.7051,3.7063,3.712,3.7034,3.7179,3.719,3.7218,3.7239,3.7252,3.7274,3.7109,3.7109,3.7109,3.7023,3.7019,3.7103,3.7109,3.7149,3.7166,3.7197,3.7216,3.7201,3.7235,3.7254,3.7358,3.7383,3.7392,3.7416,3.7279,3.7279,3.7279,3.7279,3.717,3.7221,3.7197,3.7271,3.7265,3.7326,3.7345,3.7332,3.7386,3.7344,3.7368,3.732,3.7409,3.743,3.7283,3.7283,3.7282,3.7282,3.7281,3.7265,3.7289,3.7303,3.7361,3.7405,3.7408,3.7461,3.7454,3.7448,3.7473,3.749,3.7489,3.7486,3.7482,3.7482,3.7483,3.7483,3.7483,3.7483,3.7358,3.7373,3.7419,3.7456,3.748,3.7511,3.7528,3.7551,3.7575,3.7565,3.7566,3.7544,3.742,3.7387,3.7489,3.7488,3.7487,3.7487,3.7486,3.7505,3.747,3.7542,3.7566,3.7607,3.765,3.7641,3.7689,3.7707,3.7733,3.7707,3.7617,3.7605,3.7595,3.7567,3.7709,3.7709,3.7709,3.7709,3.7584,3.7578,3.7648,3.7687,3.7725,3.7723,3.7801,3.7815,3.7823,3.7833,3.7812,3.7776,3.7766,3.776,3.7746,3.772,3.7898,3.7898,3.7898,3.7672,3.7669,3.7738,3.7747,3.7778,3.7804,3.7876,3.792,3.7922,3.7906,3.784,3.7832,3.7774,3.7756,3.7737,3.7715,3.7668,0,0]},{"header":{"parameterUnit":"m.s-1","parameterCategory":1,"la1":30.2992,"la2":30.254,"lo1":-89.0895,"lo2":-89.0443,"dy":0.0025,"dx":0.0025,"nx":19,"ny":19,"refTime":"2026-05-06T09:00:00:Z","depth":0,"parameterNumber":3,"parameterNumberName":"V-component_of_WINDS"},"data":[0,0,0,5.793,5.7935,5.8169,5.817,5.8464,5.8467,0,0,0,0,0,0,0,0,0,0,0,5.786,5.7862,5.793,5.7936,5.8169,5.817,5.8463,5.8467,0,0,0,0,0,0,0,0,0,0,0,5.7859,5.7861,5.7864,5.7937,5.8169,5.817,5.8463,5.8288,0,0,0,0,0,0,0,0,0,0,5.8061,5.7996,5.7861,5.7864,5.7938,5.8169,5.817,5.8279,5.8299,5.8356,0,5.8409,0,5.8443,5.8486,5.8487,0,0,0,5.7936,5.798,5.8044,5.7864,5.794,5.8168,5.8064,5.829,5.8312,5.8382,5.8414,5.8425,5.8448,5.8488,5.8489,5.8826,5.8828,0,0,5.7923,5.7901,5.8029,5.8058,5.8024,5.8056,5.8071,5.8304,5.8336,5.8415,5.8431,5.8452,5.849,5.8492,5.8825,5.8827,0,0,0,5.7886,5.7892,5.795,5.8046,5.8089,5.8063,5.808,5.8325,5.8346,5.8435,5.8456,5.8492,5.8495,5.8823,5.8826,5.8883,0,0,0,5.7878,5.787,5.7945,5.7934,5.8084,5.821,5.8097,5.833,5.8357,5.8454,5.8492,5.8498,5.8822,5.8824,5.8878,5.8914,0,0,0,5.7845,5.7866,5.79,5.7932,5.8032,5.8207,5.8242,5.8337,5.837,5.8487,5.8499,5.882,5.8824,5.8873,5.8906,5.8997,0,0,0,5.7803,5.7946,5.79,5.8069,5.803,5.8241,5.824,5.8398,5.8506,5.8493,5.8822,5.8825,5.8872,5.8902,5.8992,5.9071,5.9101,0,0,5.7972,5.7966,5.8067,5.8032,5.8247,5.8207,5.8429,5.8547,5.8577,5.8741,5.8749,5.888,5.8906,5.8996,5.9277,5.9301,0,0,0,5.8113,5.8185,5.8246,5.8349,5.8443,5.8527,5.8613,5.8657,5.8797,5.8658,5.8937,5.8953,5.9007,5.9046,5.9066,5.9114,5.8842,5.8841,5.8841,5.832,5.8353,5.8522,5.8582,5.868,5.8768,5.8851,5.8924,5.8926,5.8992,5.9041,5.9208,5.9253,5.9268,5.9318,5.9084,5.9084,5.9084,5.9085,5.8572,5.868,5.868,5.8844,5.8877,5.9014,5.9103,5.91,5.9232,5.9173,5.9222,5.9157,5.9294,5.9339,5.9089,5.9088,5.9088,5.9087,5.9087,5.8713,5.877,5.8821,5.8972,5.9085,5.9139,5.9267,5.929,5.9314,5.9362,5.9417,5.9416,5.9419,5.9386,5.9387,5.9388,5.9388,5.9388,5.9389,5.8839,5.8895,5.9001,5.9113,5.9182,5.9275,5.9364,5.9432,5.9513,5.952,5.952,5.9516,5.9301,5.9247,5.9398,5.9396,5.9395,5.9394,5.9394,5.9084,5.9033,5.9196,5.9265,5.9399,5.9509,5.9537,5.9673,5.9732,5.9794,5.9779,5.9615,5.9611,5.9595,5.955,5.9771,5.9771,5.9771,5.9771,5.9204,5.9204,5.9377,5.9486,5.9595,5.9637,5.9819,5.9889,5.9952,5.9991,5.9962,5.9904,5.9887,5.9893,5.987,5.9829,6.0116,6.0117,6.0117,5.9357,5.9369,5.9521,5.9584,5.969,5.978,5.9952,6.0076,6.0137,6.0131,6.0021,6.0007,5.9914,5.9883,5.9876,5.9841,5.9766,0,0]}]]